When you browse on this site, cookies collect data to enhance your experience and personalize the content and advertising you see.
Visit our Privacy Policy to learn more. By continuing to use the site, you agree to this use of cookies and data.
  • In Hungary
  • List of Countries
  • For 7 days
  • Water Temperature
  • Weather Map
  • News
  • Weather Widgets
  • user-avatar
    Login

    Hourly Weather Cameron Highlands

    Today, 21 November, Thursday

    Time Temperature Precipitation Wind Pressure Humidity
    00:00 +16°C° 0 mm 1 mps 645 mmHg 96%
    01:00 +16°C° 0 mm 1 mps 645 mmHg 96%
    02:00 +16°C° 0 mm 1 mps 644 mmHg 95%
    03:00 +15°C° 0 mm 1 mps 644 mmHg 95%
    04:00 +15°C° 0 mm 1 mps 643 mmHg 94%
    05:00 +15°C° 0 mm 1 mps 644 mmHg 93%
    06:00 +16°C° 0 mm 1 mps 644 mmHg 92%
    07:00 +16°C° 0 mm 1 mps 645 mmHg 92%
    08:00 +19°C° 0 mm 1 mps 646 mmHg 80%
    09:00 +21°C° 0 mm 1 mps 647 mmHg 69%
    10:00 +23°C° 0 mm 1 mps 648 mmHg 57%
    11:00 +24°C° 0 mm 1 mps 647 mmHg 57%
    12:00 +25°C° 0 mm 1 mps 647 mmHg 56%
    13:00 +26°C° 0 mm 2 mps 647 mmHg 52%
    14:00 +25°C° 0 mm 1 mps 646 mmHg 57%
    15:00 +24°C° 0 mm 1 mps 646 mmHg 61%
    16:00 +24°C° 0 mm 1 mps 645 mmHg 65%
    17:00 +22°C° 0.2 mm 1 mps 645 mmHg 74%
    18:00 +20°C° 0.2 mm 1 mps 645 mmHg 83%
    19:00 +19°C° 0.2 mm 1 mps 645 mmHg 93%
    20:00 +18°C° 0.1 mm 1 mps 645 mmHg 93%
    21:00 +18°C° 0.1 mm 1 mps 646 mmHg 94%
    22:00 +18°C° 0.1 mm 1 mps 646 mmHg 94%
    23:00 +18°C° 0 mm 1 mps 646 mmHg 94%

    Tomorrow, 22 November, Friday

    Time Temperature Precipitation Wind Pressure Humidity
    00:00 +18°C° 0 mm 1 mps 645 mmHg 94%
    01:00 +18°C° 0 mm 1 mps 645 mmHg 93%
    02:00 +16°C° 0 mm 1 mps 645 mmHg 93%
    03:00 +16°C° 0 mm 1 mps 644 mmHg 93%
    04:00 +16°C° 0 mm 1 mps 644 mmHg 93%
    05:00 +18°C° 0 mm 1 mps 644 mmHg 92%
    06:00 +18°C° 0 mm 1 mps 645 mmHg 91%
    07:00 +16°C° 0 mm 0 mps 646 mmHg 90%
    08:00 +20°C° 0.2 mm 1 mps 646 mmHg 85%
    09:00 +22°C° 0.2 mm 1 mps 647 mmHg 80%
    10:00 +23°C° 0.2 mm 1 mps 648 mmHg 76%
    11:00 +23°C° 2 mm 1 mps 647 mmHg 79%
    12:00 +23°C° 2 mm 1 mps 647 mmHg 83%
    13:00 +23°C° 2 mm 1 mps 646 mmHg 86%
    14:00 +22°C° 2 mm 1 mps 646 mmHg 89%
    15:00 +21°C° 2 mm 1 mps 645 mmHg 92%
    16:00 +20°C° 2 mm 1 mps 644 mmHg 95%
    17:00 +19°C° 0.9 mm 1 mps 644 mmHg 96%
    18:00 +19°C° 0.9 mm 1 mps 645 mmHg 96%
    19:00 +16°C° 0.9 mm 0 mps 645 mmHg 97%
    20:00 +18°C° 0.9 mm 1 mps 645 mmHg 97%
    21:00 +18°C° 0.9 mm 1 mps 646 mmHg 97%
    22:00 +18°C° 0.9 mm 1 mps 646 mmHg 98%
    23:00 +18°C° 0.3 mm 1 mps 646 mmHg 98%

    Day after tomorrow, 23 November, Saturday

    Time Temperature Precipitation Wind Pressure Humidity
    00:00 +16°C° 0.3 mm 0 mps 645 mmHg 98%
    01:00 +16°C° 0.3 mm 0 mps 645 mmHg 97%
    02:00 +15°C° 0.1 mm 0 mps 645 mmHg 97%
    03:00 +15°C° 0.1 mm 0 mps 644 mmHg 97%
    04:00 +15°C° 0.1 mm 0 mps 644 mmHg 97%
    05:00 +15°C° 0 mm 0 mps 644 mmHg 96%
    06:00 +16°C° 0 mm 0 mps 645 mmHg 96%
    07:00 +16°C° 0 mm 0 mps 646 mmHg 96%
    08:00 +19°C° 0.4 mm 1 mps 646 mmHg 93%
    09:00 +20°C° 0.4 mm 1 mps 647 mmHg 91%
    10:00 +21°C° 0.4 mm 1 mps 647 mmHg 89%
    11:00 +21°C° 1.5 mm 1 mps 647 mmHg 89%
    12:00 +21°C° 1.5 mm 1 mps 646 mmHg 89%
    13:00 +22°C° 1.5 mm 1 mps 646 mmHg 90%
    14:00 +21°C° 1.3 mm 1 mps 645 mmHg 91%
    15:00 +21°C° 1.3 mm 1 mps 645 mmHg 93%
    16:00 +20°C° 1.3 mm 1 mps 644 mmHg 95%
    17:00 +18°C° 0.7 mm 0 mps 645 mmHg 96%
    18:00 +17°C° 0.7 mm 0 mps 645 mmHg 96%
    19:00 +16°C° 0.7 mm 0 mps 645 mmHg 97%
    20:00 +16°C° 0.3 mm 0 mps 645 mmHg 97%
    21:00 +16°C° 0.3 mm 0 mps 646 mmHg 97%
    22:00 +16°C° 0.3 mm 0 mps 646 mmHg 97%
    23:00 +15°C° 0 mm 0 mps 645 mmHg 97%

    24 November, Sunday

    Time Temperature Precipitation Wind Pressure Humidity
    00:00 +15°C° 0 mm 0 mps 645 mmHg 97%
    01:00 +15°C° 0 mm 0 mps 645 mmHg 97%
    02:00 +15°C° 0 mm 0 mps 644 mmHg 97%
    03:00 +15°C° 0 mm 0 mps 644 mmHg 97%
    04:00 +15°C° 0 mm 0 mps 644 mmHg 96%
    05:00 +15°C° 0 mm 0 mps 644 mmHg 95%
    06:00 +16°C° 0 mm 0 mps 645 mmHg 94%
    07:00 +16°C° 0 mm 0 mps 645 mmHg 93%
    08:00 +18°C° 0.4 mm 0 mps 646 mmHg 88%
    09:00 +21°C° 0.4 mm 1 mps 647 mmHg 84%
    10:00 +23°C° 0.4 mm 1 mps 647 mmHg 79%
    11:00 +23°C° 2.2 mm 1 mps 647 mmHg 82%
    12:00 +23°C° 2.2 mm 1 mps 646 mmHg 84%
    13:00 +23°C° 2.2 mm 1 mps 646 mmHg 87%
    14:00 +22°C° 2.3 mm 1 mps 645 mmHg 90%
    15:00 +21°C° 2.3 mm 1 mps 645 mmHg 92%
    16:00 +20°C° 2.3 mm 1 mps 644 mmHg 95%
    17:00 +20°C° 1 mm 1 mps 644 mmHg 96%
    18:00 +19°C° 1 mm 1 mps 645 mmHg 97%
    19:00 +18°C° 1 mm 1 mps 645 mmHg 98%
    20:00 +16°C° 0.4 mm 0 mps 645 mmHg 97%
    21:00 +16°C° 0.4 mm 0 mps 646 mmHg 96%
    22:00 +15°C° 0.4 mm 0 mps 646 mmHg 95%
    23:00 +15°C° 0 mm 0 mps 645 mmHg 95%

    25 November, Monday

    Time Temperature Precipitation Wind Pressure Humidity
    00:00 +15°C° 0 mm 0 mps 645 mmHg 95%
    01:00 +16°C° 0 mm 1 mps 644 mmHg 94%
    02:00 +15°C° 0 mm 0 mps 644 mmHg 94%
    03:00 +14°C° 0 mm 0 mps 644 mmHg 94%
    04:00 +14°C° 0 mm 0 mps 644 mmHg 94%
    05:00 +15°C° 0 mm 0 mps 644 mmHg 94%
    06:00 +15°C° 0 mm 0 mps 645 mmHg 93%
    07:00 +16°C° 0 mm 0 mps 645 mmHg 93%
    08:00 +17°C° 0.5 mm 0 mps 646 mmHg 89%
    09:00 +21°C° 0.5 mm 1 mps 647 mmHg 85%
    10:00 +22°C° 0.5 mm 1 mps 647 mmHg 82%
    11:00 +22°C° 1.9 mm 1 mps 647 mmHg 84%
    12:00 +22°C° 1.9 mm 1 mps 646 mmHg 86%
    13:00 +22°C° 1.9 mm 1 mps 645 mmHg 88%
    14:00 +22°C° 2.3 mm 1 mps 645 mmHg 89%
    15:00 +22°C° 2.3 mm 1 mps 644 mmHg 91%
    16:00 +21°C° 2.3 mm 1 mps 644 mmHg 92%
    17:00 +18°C° 1.6 mm 0 mps 644 mmHg 93%
    18:00 +17°C° 1.6 mm 0 mps 644 mmHg 95%
    19:00 +16°C° 1.6 mm 0 mps 644 mmHg 96%
    20:00 +16°C° 0.6 mm 0 mps 645 mmHg 96%
    21:00 +16°C° 0.6 mm 0 mps 645 mmHg 96%
    22:00 +16°C° 0.6 mm 0 mps 645 mmHg 96%
    23:00 +16°C° 1 mm 0 mps 645 mmHg 97%

    26 November, Tuesday

    Time Temperature Precipitation Wind Pressure Humidity
    00:00 +16°C° 1 mm 0 mps 645 mmHg 97%
    01:00 +16°C° 1 mm 0 mps 644 mmHg 98%
    02:00 +16°C° 0.3 mm 0 mps 644 mmHg 98%
    03:00 +15°C° 0.3 mm 0 mps 644 mmHg 97%
    04:00 +15°C° 0.3 mm 0 mps 643 mmHg 97%
    05:00 +15°C° 0 mm 0 mps 644 mmHg 96%
    06:00 +16°C° 0 mm 0 mps 644 mmHg 96%
    07:00 +16°C° 0 mm 0 mps 645 mmHg 95%
    08:00 +17°C° 0.3 mm 0 mps 645 mmHg 93%
    09:00 +20°C° 0.3 mm 1 mps 646 mmHg 90%
    10:00 +21°C° 0.3 mm 1 mps 646 mmHg 87%
    11:00 +21°C° 1.5 mm 1 mps 646 mmHg 89%
    12:00 +21°C° 1.5 mm 1 mps 645 mmHg 90%
    13:00 +21°C° 1.5 mm 1 mps 645 mmHg 91%
    14:00 +21°C° 1.2 mm 1 mps 644 mmHg 93%
    15:00 +20°C° 1.2 mm 1 mps 644 mmHg 95%
    16:00 +19°C° 1.2 mm 1 mps 643 mmHg 97%
    17:00 +19°C° 0.3 mm 1 mps 643 mmHg 97%
    18:00 +18°C° 0.3 mm 1 mps 643 mmHg 97%
    19:00 +18°C° 0.3 mm 1 mps 644 mmHg 97%
    20:00 +16°C° 0.1 mm 0 mps 644 mmHg 97%
    21:00 +16°C° 0.1 mm 0 mps 644 mmHg 97%
    22:00 +16°C° 0.1 mm 0 mps 645 mmHg 98%
    23:00 +15°C° 0 mm 0 mps 644 mmHg 97%
    Show more